Home > Weather > Nantes > Past weeks

Flag for France Past Weather in Nantes, Pays de la Loire, France — Yesterday and Last 2 Weeks

Now
64 °F

Mostly cloudy.


Feels Like: 64 °F
Forecast: 57 / 71 °F
Wind: 6 mph from Southwest

Location: Nantes Airport

Current Time: Jul 29, 2016 at 6:06:55 AM

Latest Report: Jul 29, 2016 at 5:30 AM


Visibility: N/A

Pressure: 30.04 "Hg

Humidity: 94%

Dew Point: 63 °F

Location of NantesLocation

Past Weather in Nantes — Graph

°F

Nantes Temperature Yesterday

Maximum temperature yesterday: 75 °F (at 4:00 PM)
Minimum temperature yesterday: 64 °F (at 12:30 AM)
Average temperature yesterday: 68 °F

High & Low Weather Summary for the Past Weeks

 TemperatureHumidityPressure
High99 °F (Jul 19, 5:00 PM)100% (Jul 24, 5:00 AM)30.39 "Hg (Jul 24, 5:00 AM)
Low48 °F (Jul 15, 6:00 AM)22% (Jul 19, 2:30 PM)29.86 "Hg (Jul 19, 5:30 PM)
Average70 °F67%30.14 "Hg
* Reported Jul 14 5:00 AM — Jul 29 5:00 AM, Nantes, Weather by CustomWeather, © 2016

Note: Actual official high and low records may vary slightly from our data, if they occured in-between our weather recording intervals... More about our weather records

Advertising

Nantes Weather History for the Previous 24 Hours

Scroll right to see more
 ConditionsComfort  
Time TempWeatherWind HumidityBarometerVisibility
5:00 AM
Fri, Jul 29
64 °FMostly cloudy.5 mph94%30.04 "Hg4 mi
4:30 AM64 °FFog.6 mph94%30.04 "Hg3 mi
4:00 AM64 °FPartly cloudy.6 mph94%30.04 "HgN/A
3:30 AM64 °FMostly cloudy.8 mph94%30.04 "HgN/A
3:00 AM64 °FMostly cloudy.6 mph94%30.04 "HgN/A
2:30 AM64 °FMostly cloudy.7 mph94%30.07 "HgN/A
2:00 AM64 °FMostly cloudy.8 mph94%30.07 "Hg6 mi
1:30 AM64 °FFog.3 mph94%30.07 "Hg3 mi
1:00 AM64 °FMostly cloudy.7 mph94%30.07 "HgN/A
12:30 AM64 °FMostly cloudy.6 mph94%30.07 "HgN/A
12:00 AM64 °FMostly cloudy.6 mph94%30.07 "HgN/A
11:30 PM
Thu, Jul 28
64 °FMostly cloudy.7 mph94%30.07 "HgN/A
11:00 PM66 °FMostly cloudy.6 mph88%30.07 "HgN/A
10:30 PM66 °FOvercast.6 mph88%30.07 "HgN/A
10:00 PM66 °FOvercast.7 mph83%30.07 "HgN/A
9:30 PM66 °FOvercast.8 mph83%30.07 "HgN/A
9:00 PM68 °FMostly cloudy.9 mph78%30.09 "HgN/A
8:30 PM68 °FOvercast.12 mph73%30.07 "HgN/A
8:00 PM68 °FOvercast.7 mph78%30.07 "HgN/A
7:30 PM68 °FOvercast.10 mph78%30.09 "HgN/A
7:00 PM70 °FOvercast.14 mph73%30.09 "HgN/A
6:30 PM70 °FOvercast.12 mph73%30.09 "HgN/A
6:00 PM72 °FOvercast.12 mph65%30.09 "HgN/A
5:30 PM72 °FOvercast.12 mph65%30.09 "HgN/A
5:00 PM72 °FOvercast.13 mph65%30.09 "HgN/A
4:30 PM75 °FPartly sunny.14 mph57%30.09 "HgN/A
4:00 PM75 °FPartly sunny.12 mph57%30.09 "HgN/A
3:30 PM73 °FOvercast.12 mph61%30.09 "HgN/A
3:00 PM73 °FOvercast.13 mph61%30.12 "HgN/A
2:30 PM73 °FMostly cloudy.12 mph61%30.12 "HgN/A
2:00 PM72 °FMore clouds than sun.13 mph65%30.12 "HgN/A
1:30 PM72 °FMostly cloudy.10 mph65%30.12 "HgN/A
1:00 PM72 °FOvercast.10 mph65%30.12 "HgN/A
12:30 PM70 °FMostly cloudy.9 mph69%30.12 "HgN/A
12:00 PM70 °FOvercast.8 mph64%30.12 "HgN/A
11:30 AM70 °FOvercast.10 mph64%30.12 "HgN/A
11:00 AM70 °FOvercast.9 mph64%30.12 "HgN/A
10:30 AM70 °FOvercast.9 mph64%30.12 "HgN/A
10:00 AM68 °FMostly cloudy.10 mph64%30.12 "HgN/A
9:30 AM68 °FOvercast.10 mph73%30.12 "HgN/A
9:00 AM66 °FOvercast.7 mph83%30.12 "HgN/A
8:30 AM66 °FLow clouds.7 mph88%30.12 "HgN/A
8:00 AM64 °FOvercast.5 mph94%30.09 "HgN/A
7:30 AM64 °FOvercast.3 mph94%30.09 "HgN/A
7:00 AM64 °FOvercast.3 mph94%30.09 "HgN/A
6:30 AM64 °FLow clouds.5 mph94%30.09 "HgN/A
6:00 AM64 °FMostly cloudy.6 mph94%30.09 "HgN/A
Weather by CustomWeather, © 2016

See weather overviewHow to use our weather pages